Location: Unspecified
(0.0000°N, 0.0000°E)
Time: 21:26:59
(UTC+00:00)

Tiros 1 despin weight - Pass Details

Date: 02 June 2022
Orbit: 591 x 639 km, 48.2° (Epoch: 25 June)

Event Time Altitude Azimuth Distance (km) Brightness Sun altitude
Rises 22:51:40 0° 350° (N) 2,803 - -62.5°
Reaches altitude 10° 22:54:42 10° 12° (NNE) 1,904 - -62.9°
Maximum altitude 22:57:24 16° 50° (NE) 1,553 - -63.3°
Drops below altitude 10° 23:00:06 10° 89° (E) 1,911 - -63.6°
Sets 23:03:09 0° 110° (ESE) 2,819 - -64.0°
